BTK7552 WAHS-WIHH

Flight info

Callsign BTK7552
Flight time 0h 43m
Altitude 34000
Route KIDET W16 IMU
Aircraft A320/M-SDE3FGHIRWY/LB1

Departure

Time 2026-04-30 03:58
Airport Jenderal Ahmad Yani Airport (WAHS)

Arrival

Time 2026-04-30 04:42
Airport Halim Perdanakusuma International Airport (WIHH)
Time Latitude Longitude Altitude Speed Heading
2026-04-30 03:52 -6.96821 110.37460 18 ft 0 kts 311°
2026-04-30 03:52 -6.96814 110.37451 18 ft 5 kts 311°
2026-04-30 03:52 -6.96791 110.37426 18 ft 4 kts 310°
2026-04-30 03:53 -6.96773 110.37404 19 ft 4 kts 310°
2026-04-30 03:53 -6.96758 110.37385 19 ft 3 kts 310°
2026-04-30 03:53 -6.96735 110.37358 18 ft 5 kts 310°
2026-04-30 03:53 -6.96714 110.37333 19 ft 4 kts 310°
2026-04-30 03:54 -6.96677 110.37289 19 ft 10 kts 310°
2026-04-30 03:54 -6.96634 110.37238 19 ft 7 kts 310°
2026-04-30 03:54 -6.96616 110.37199 19 ft 8 kts 251°
2026-04-30 03:54 -6.96677 110.37148 18 ft 12 kts 218°
2026-04-30 03:55 -6.96743 110.37091 13 ft 14 kts 220°
2026-04-30 03:55 -6.96788 110.37003 7 ft 16 kts 295°
2026-04-30 03:55 -6.96701 110.36897 6 ft 25 kts 309°
2026-04-30 03:55 -6.96579 110.36752 6 ft 28 kts 310°
2026-04-30 03:56 -6.96447 110.36597 4 ft 30 kts 310°
2026-04-30 03:56 -6.96317 110.36443 5 ft 23 kts 310°
2026-04-30 03:56 -6.96270 110.36343 5 ft 14 kts 312°
2026-04-30 03:56 -6.96248 110.36363 5 ft 6 kts 118°
2026-04-30 03:57 -6.96260 110.36376 6 ft 0 kts 130°
2026-04-30 03:57 -6.96273 110.36392 6 ft 18 kts 130°
2026-04-30 03:57 -6.96538 110.36706 6 ft 95 kts 130°
2026-04-30 03:57 -6.97097 110.37369 4 ft 151 kts 130°
2026-04-30 03:58 -6.97869 110.38266 274 ft 177 kts 129°
2026-04-30 03:58 -6.98473 110.39352 1002 ft 178 kts 111°
2026-04-30 03:58 -6.98916 110.40525 1688 ft 185 kts 110°
2026-04-30 03:58 -6.99416 110.41806 1958 ft 209 kts 110°
2026-04-30 03:59 -7.00001 110.43249 2350 ft 235 kts 111°
2026-04-30 03:59 -7.00657 110.44840 2980 ft 254 kts 112°
2026-04-30 03:59 -7.01349 110.46506 3806 ft 263 kts 111°
2026-04-30 03:59 -7.01586 110.48329 4715 ft 267 kts 79°
2026-04-30 04:00 -7.00779 110.50007 5617 ft 272 kts 47°
2026-04-30 04:00 -6.99157 110.50990 6474 ft 280 kts 14°
2026-04-30 04:00 -6.97195 110.50947 7224 ft 291 kts 344°
2026-04-30 04:00 -6.95302 110.50191 8084 ft 296 kts 332°
2026-04-30 04:01 -6.93686 110.48897 8932 ft 300 kts 311°
2026-04-30 04:01 -6.92527 110.47145 9745 ft 303 kts 296°
2026-04-30 04:01 -6.91556 110.45235 10387 ft 314 kts 297°
2026-04-30 04:01 -6.90483 110.43229 10613 ft 338 kts 298°
2026-04-30 04:02 -6.89311 110.41096 10937 ft 355 kts 299°
2026-04-30 04:02 -6.88096 110.38903 11559 ft 362 kts 298°
2026-04-30 04:02 -6.86866 110.36674 12234 ft 366 kts 298°
2026-04-30 04:02 -6.85630 110.34420 12907 ft 370 kts 298°
2026-04-30 04:03 -6.84387 110.32146 13560 ft 373 kts 298°
2026-04-30 04:03 -6.83129 110.29843 14208 ft 377 kts 300°
2026-04-30 04:03 -6.81861 110.27518 14842 ft 380 kts 300°
2026-04-30 04:03 -6.80586 110.25174 15455 ft 384 kts 300°
2026-04-30 04:04 -6.79297 110.22803 16061 ft 388 kts 300°
2026-04-30 04:04 -6.78000 110.20420 16638 ft 391 kts 300°
2026-04-30 04:04 -6.76701 110.18036 17195 ft 395 kts 300°
2026-04-30 04:04 -6.75358 110.15570 17759 ft 398 kts 300°
2026-04-30 04:05 -6.74042 110.13153 18283 ft 401 kts 300°
2026-04-30 04:05 -6.72677 110.10648 18838 ft 405 kts 300°
2026-04-30 04:05 -6.71335 110.08189 19325 ft 408 kts 300°
2026-04-30 04:05 -6.69965 110.05676 19811 ft 412 kts 300°
2026-04-30 04:06 -6.68563 110.03107 20300 ft 415 kts 300°
2026-04-30 04:06 -6.67186 110.00588 20744 ft 418 kts 300°
2026-04-30 04:06 -6.65779 109.98015 21197 ft 422 kts 300°
2026-04-30 04:06 -6.64361 109.95422 21639 ft 425 kts 300°
2026-04-30 04:07 -6.62931 109.92804 22067 ft 428 kts 300°
2026-04-30 04:07 -6.61496 109.90172 22512 ft 430 kts 300°
2026-04-30 04:07 -6.60057 109.87531 22988 ft 432 kts 300°
2026-04-30 04:08 -6.57151 109.82209 23819 ft 436 kts 301°
2026-04-30 04:08 -6.55685 109.79530 24206 ft 439 kts 301°
2026-04-30 04:08 -6.54209 109.76829 24584 ft 442 kts 300°
2026-04-30 04:08 -6.52726 109.74116 24947 ft 445 kts 300°
2026-04-30 04:09 -6.51234 109.71384 25293 ft 447 kts 300°
2026-04-30 04:09 -6.49730 109.68628 25634 ft 450 kts 300°
2026-04-30 04:09 -6.48221 109.65862 25968 ft 453 kts 300°
2026-04-30 04:09 -6.46703 109.63081 26294 ft 455 kts 300°
2026-04-30 04:10 -6.45244 109.60410 26607 ft 457 kts 300°
2026-04-30 04:10 -6.43708 109.57599 26924 ft 459 kts 300°
2026-04-30 04:10 -6.42687 109.55735 27130 ft 461 kts 300°
2026-04-30 04:10 -6.41134 109.52907 27443 ft 463 kts 300°
2026-04-30 04:11 -6.39576 109.50065 27756 ft 465 kts 299°
2026-04-30 04:11 -6.38011 109.47208 28060 ft 467 kts 299°
2026-04-30 04:11 -6.36441 109.44340 28350 ft 469 kts 299°
2026-04-30 04:11 -6.34871 109.41464 28630 ft 471 kts 299°
2026-04-30 04:12 -6.33290 109.38569 28910 ft 473 kts 299°
2026-04-30 04:12 -6.31791 109.35625 29163 ft 474 kts 292°
2026-04-30 04:12 -6.30731 109.32488 29432 ft 475 kts 283°
2026-04-30 04:12 -6.30177 109.29214 29682 ft 476 kts 274°
2026-04-30 04:13 -6.30105 109.25890 29923 ft 477 kts 269°
2026-04-30 04:13 -6.30127 109.22555 30165 ft 478 kts 269°
2026-04-30 04:13 -6.30144 109.19206 30403 ft 480 kts 269°
2026-04-30 04:13 -6.30157 109.15842 30616 ft 482 kts 269°
2026-04-30 04:14 -6.30167 109.12479 30950 ft 481 kts 269°
2026-04-30 04:14 -6.30176 109.09122 31293 ft 480 kts 269°
2026-04-30 04:14 -6.30186 109.05773 31617 ft 479 kts 269°
2026-04-30 04:14 -6.30200 109.02431 31947 ft 478 kts 269°
2026-04-30 04:15 -6.30216 108.99095 32268 ft 477 kts 269°
2026-04-30 04:15 -6.30231 108.95767 32579 ft 476 kts 269°
2026-04-30 04:15 -6.30242 108.92440 32900 ft 475 kts 269°
2026-04-30 04:15 -6.30251 108.89120 33221 ft 475 kts 269°
2026-04-30 04:16 -6.30259 108.85808 33536 ft 474 kts 269°
2026-04-30 04:16 -6.30269 108.82496 33812 ft 474 kts 269°
2026-04-30 04:16 -6.30279 108.79193 33887 ft 471 kts 269°
2026-04-30 04:17 -6.30303 108.72635 33891 ft 468 kts 269°
2026-04-30 04:17 -6.30331 108.66075 33893 ft 471 kts 269°
2026-04-30 04:18 -6.30357 108.59494 33881 ft 471 kts 269°
2026-04-30 04:18 -6.30365 108.56242 33644 ft 471 kts 269°
2026-04-30 04:18 -6.30372 108.52904 33384 ft 471 kts 269°
2026-04-30 04:18 -6.30377 108.49609 33141 ft 472 kts 269°
2026-04-30 04:19 -6.30383 108.46307 32892 ft 472 kts 269°
2026-04-30 04:19 -6.30392 108.43010 32642 ft 472 kts 269°
2026-04-30 04:19 -6.30402 108.39759 32395 ft 472 kts 269°
2026-04-30 04:19 -6.30411 108.36467 32146 ft 472 kts 270°
2026-04-30 04:20 -6.30156 108.33168 31894 ft 473 kts 278°
2026-04-30 04:20 -6.29465 108.29935 31101 ft 477 kts 283°
2026-04-30 04:20 -6.28661 108.26680 30239 ft 478 kts 283°
2026-04-30 04:20 -6.27845 108.23466 29596 ft 473 kts 284°
2026-04-30 04:21 -6.27027 108.20274 28908 ft 469 kts 284°
2026-04-30 04:21 -6.26218 108.17115 28236 ft 465 kts 284°
2026-04-30 04:21 -6.25420 108.13973 27576 ft 462 kts 284°
2026-04-30 04:21 -6.24637 108.10854 26921 ft 459 kts 284°
2026-04-30 04:22 -6.23864 108.07756 26275 ft 455 kts 284°
2026-04-30 04:22 -6.23100 108.04687 25661 ft 451 kts 284°
2026-04-30 04:22 -6.22343 108.01644 25032 ft 447 kts 285°
2026-04-30 04:22 -6.21600 107.98624 24410 ft 443 kts 283°
2026-04-30 04:23 -6.21211 107.95571 23821 ft 439 kts 273°
2026-04-30 04:23 -6.21142 107.92519 23241 ft 435 kts 272°
2026-04-30 04:23 -6.21076 107.89495 22693 ft 430 kts 272°
2026-04-30 04:23 -6.21007 107.86506 22162 ft 425 kts 272°
2026-04-30 04:24 -6.20937 107.83560 21659 ft 420 kts 272°
2026-04-30 04:24 -6.20866 107.80637 21145 ft 416 kts 272°
2026-04-30 04:24 -6.20800 107.77746 20650 ft 411 kts 272°
2026-04-30 04:24 -6.20736 107.74890 20147 ft 407 kts 272°
2026-04-30 04:25 -6.20672 107.72056 19640 ft 404 kts 272°
2026-04-30 04:25 -6.20607 107.69243 19124 ft 401 kts 272°
2026-04-30 04:25 -6.20543 107.66451 18605 ft 398 kts 272°
2026-04-30 04:25 -6.20480 107.63675 18085 ft 396 kts 272°
2026-04-30 04:26 -6.20416 107.60911 17552 ft 394 kts 272°
2026-04-30 04:26 -6.20348 107.58164 17017 ft 393 kts 272°
2026-04-30 04:26 -6.20277 107.55426 16485 ft 391 kts 272°
2026-04-30 04:26 -6.20207 107.52713 15958 ft 390 kts 272°
2026-04-30 04:27 -6.20138 107.49997 15430 ft 388 kts 272°
2026-04-30 04:27 -6.20072 107.47293 14903 ft 386 kts 272°
2026-04-30 04:27 -6.20005 107.44603 14380 ft 384 kts 272°
2026-04-30 04:27 -6.19937 107.41921 13850 ft 382 kts 272°
2026-04-30 04:28 -6.19865 107.39256 13324 ft 380 kts 272°
2026-04-30 04:28 -6.19793 107.36610 12787 ft 378 kts 272°
2026-04-30 04:28 -6.19724 107.34024 12260 ft 375 kts 272°
2026-04-30 04:28 -6.19722 107.31415 11715 ft 373 kts 266°
2026-04-30 04:29 -6.20218 107.28872 11174 ft 371 kts 252°
2026-04-30 04:29 -6.21258 107.26510 10618 ft 369 kts 239°
2026-04-30 04:29 -6.22620 107.24357 10299 ft 357 kts 237°
2026-04-30 04:29 -6.23904 107.22334 10179 ft 331 kts 238°
2026-04-30 04:30 -6.25101 107.20436 9870 ft 313 kts 238°
2026-04-30 04:30 -6.26244 107.18620 9760 ft 306 kts 238°
2026-04-30 04:30 -6.27387 107.16805 9637 ft 307 kts 238°
2026-04-30 04:30 -6.28528 107.14993 9252 ft 306 kts 238°
2026-04-30 04:31 -6.29646 107.13218 8781 ft 303 kts 238°
2026-04-30 04:31 -6.30772 107.11408 8296 ft 300 kts 238°
2026-04-30 04:31 -6.31848 107.09654 7819 ft 298 kts 238°
2026-04-30 04:31 -6.32929 107.07885 7352 ft 296 kts 238°
2026-04-30 04:32 -6.34001 107.06131 6883 ft 293 kts 238°
2026-04-30 04:32 -6.35065 107.04391 6414 ft 291 kts 238°
2026-04-30 04:32 -6.36123 107.02661 5946 ft 289 kts 237°
2026-04-30 04:32 -6.37163 107.00964 5494 ft 283 kts 237°
2026-04-30 04:33 -6.38183 106.99302 5085 ft 272 kts 237°
2026-04-30 04:33 -6.39145 106.97732 4784 ft 254 kts 236°
2026-04-30 04:33 -6.40059 106.96205 4991 ft 259 kts 242°
2026-04-30 04:33 -6.40654 106.94496 4941 ft 261 kts 258°
2026-04-30 04:34 -6.40981 106.92712 4830 ft 259 kts 258°
2026-04-30 04:34 -6.41288 106.91023 4722 ft 259 kts 258°
2026-04-30 04:34 -6.41600 106.89364 4622 ft 258 kts 258°
2026-04-30 04:34 -6.41926 106.87592 4516 ft 257 kts 258°
2026-04-30 04:35 -6.42251 106.85823 4408 ft 257 kts 258°
2026-04-30 04:35 -6.42570 106.84092 4301 ft 253 kts 258°
2026-04-30 04:35 -6.42872 106.82424 4203 ft 235 kts 258°
2026-04-30 04:35 -6.43145 106.80832 4102 ft 224 kts 264°
2026-04-30 04:36 -6.42908 106.79349 4000 ft 213 kts 295°
2026-04-30 04:36 -6.42024 106.78179 3813 ft 212 kts 323°
2026-04-30 04:36 -6.40738 106.77493 3543 ft 209 kts 338°
2026-04-30 04:36 -6.39424 106.76903 3287 ft 206 kts 339°
2026-04-30 04:37 -6.38118 106.76315 3038 ft 206 kts 338°
2026-04-30 04:37 -6.36822 106.75730 2790 ft 203 kts 338°
2026-04-30 04:37 -6.35525 106.75145 2685 ft 207 kts 337°
2026-04-30 04:37 -6.34197 106.74582 2587 ft 207 kts 347°
2026-04-30 04:38 -6.32818 106.74695 2488 ft 202 kts 30°
2026-04-30 04:38 -6.31890 106.75683 2324 ft 196 kts 71°
2026-04-30 04:38 -6.31506 106.76938 2154 ft 182 kts 75°
2026-04-30 04:38 -6.31168 106.78102 1970 ft 168 kts 76°
2026-04-30 04:39 -6.30852 106.79178 1804 ft 151 kts 76°
2026-04-30 04:39 -6.30560 106.80170 1665 ft 145 kts 76°
2026-04-30 04:39 -6.30280 106.81122 1518 ft 143 kts 76°
2026-04-30 04:39 -6.29890 106.82060 1357 ft 143 kts 69°
2026-04-30 04:40 -6.29473 106.82971 1163 ft 145 kts 67°
2026-04-30 04:40 -6.29065 106.83863 980 ft 143 kts 68°
2026-04-30 04:40 -6.28646 106.84784 762 ft 143 kts 70°
2026-04-30 04:40 -6.28228 106.85705 602 ft 144 kts 70°
2026-04-30 04:41 -6.27807 106.86615 395 ft 144 kts 69°
2026-04-30 04:41 -6.27393 106.87528 210 ft 143 kts 68°
2026-04-30 04:41 -6.26985 106.88405 96 ft 133 kts 65°
2026-04-30 04:41 -6.26700 106.89031 99 ft 50 kts 65°
2026-04-30 04:42 -6.26614 106.89193 97 ft 15 kts 35°
2026-04-30 04:42 -6.26547 106.89158 96 ft 6 kts 291°
2026-04-30 04:42 -6.26532 106.89120 96 ft 6 kts 291°
2026-04-30 04:42 -6.26518 106.89082 96 ft 6 kts 291°
2026-04-30 04:43 -6.26504 106.89046 95 ft 5 kts 290°
2026-04-30 04:43 -6.26495 106.89011 96 ft 5 kts 276°
2026-04-30 04:43 -6.26502 106.88980 97 ft 4 kts 249°
2026-04-30 04:43 -6.26513 106.88954 95 ft 4 kts 245°
2026-04-30 04:44 -6.26525 106.88929 95 ft 7 kts 245°
2026-04-30 04:44 -6.26561 106.88851 96 ft 13 kts 245°
2026-04-30 04:46 -6.26597 106.88637 96 ft 0 kts 335°